Theta_e
335 333 332 336 338 338 337 337 336 336 333 330 333 337 337 335 332 330 333 334 334 333 333 332 329 321 310 305 303 303 303 303 310 310 314 314 315 315 314 311 309 304 300
337 336 336 337 337 336 337 337 337 337 335 330 333 334 334 333 331 332 333 332 331 329 327 325 314 306 303 302 302 302 303 306 313 314 314 312 311 311 310 309 303 299 298
338 339 338 338 338 338 337 337 337 337 336 334 332 332 332 332 332 332 331 328 323 321 314 309 304 302 302 302 302 302 302 303 311 313 312 312 311 308 309 302 298 298 297
336 337 337 337 337 337 337 337 336 335 335 334 332 332 332 332 331 329 327 322 314 309 304 302 301 301 301 301 301 302 302 302 303 304 303 305 302 302 304 298 296 296 296
336 336 336 336 335 334 334 334 332 332 334 333 333 333 332 329 325 325 322 313 307 303 301 301 301 300 301 301 301 301 301 301 301 301 301 300 298 298 298 297 296 295 295
333 334 334 333 333 333 332 332 331 335 333 331 332 331 328 328 324 322 319 307 302 300 300 300 300 300 300 300 300 300 300 299 299 299 298 298 298 296 296 296 296 295 294
333 332 332 331 331 331 330 330 333 333 331 331 329 327 327 326 322 320 313 303 300 300 299 299 299 299 299 299 299 299 298 298 298 297 297 296 296 295 295 295 295 294 294
330 330 331 330 330 329 329 329 330 331 330 327 324 322 322 318 315 314 305 302 300 299 299 299 299 299 299 298 298 298 297 297 296 296 296 295 295 294 294 294 294 293 293
327 329 330 330 328 328 328 329 326 329 326 322 319 316 315 313 313 308 303 302 300 299 299 298 298 298 298 298 297 297 296 296 295 295 294 294 294 293 293 292 292 292 291
327 328 329 329 327 327 326 326 324 326 322 317 317 315 312 311 311 305 303 302 301 298 298 298 298 298 297 297 296 296 296 295 294 294 294 293 293 292 292 292 291 291 290
322 323 326 325 325 325 324 323 321 319 318 315 313 312 310 309 305 304 303 303 300 298 298 297 297 298 297 296 296 295 295 295 294 293 293 293 292 292 292 292 291 290 290
324 320 320 320 322 322 322 320 319 318 316 314 312 309 308 306 304 304 303 302 299 298 298 297 297 297 296 296 296 295 294 294 294 293 293 292 292 292 292 292 291 290 290
321 318 316 317 319 320 319 317 316 315 312 311 309 307 305 304 304 303 303 300 299 298 297 297 296 296 296 296 295 294 294 294 294 293 292 292 292 292 292 291 291 291 290
321 316 313 313 314 314 315 314 312 311 309 306 305 304 304 304 303 302 300 299 298 298 297 296 296 296 295 295 295 294 294 294 293 293 292 292 291 291 291 291 290 290 290
317 314 312 311 310 312 312 311 310 309 307 305 304 303 303 303 301 300 299 298 298 298 297 296 295 295 295 295 294 294 294 294 293 292 292 291 291 291 291 290 290 290 290
315 311 310 310 310 311 311 311 310 308 306 305 304 303 302 301 300 300 299 298 298 298 296 295 294 294 294 294 294 294 294 293 292 292 291 291 290 291 290 290 289 289 289
312 311 311 311 311 313 313 311 310 308 306 304 303 303 302 301 300 299 299 299 298 297 296 294 293 293 293 293 293 293 293 292 292 291 291 291 291 290 290 289 288 289 288
300 309 314 317 315 313 312 312 311 309 306 304 303 302 301 300 300 299 299 298 297 297 295 294 293 293 293 293 293 293 293 292 291 291 291 291 290 290 290 289 289 289 289
298 304 315 317 316 314 313 311 309 308 306 305 303 302 301 300 300 299 298 297 297 297 296 294 293 292 293 293 293 292 292 292 291 291 291 290 290 290 290 290 290 289 289
298 309 318 313 311 309 310 309 308 307 307 306 304 302 301 300 299 298 298 298 297 296 295 295 292 292 292 292 292 292 292 291 291 291 290 289 289 290 289 289 289 289 288
296 302 316 314 312 310 310 309 308 309 308 307 304 302 301 300 299 298 298 298 297 296 295 295 293 292 292 292 292 291 291 291 291 290 289 289 289 289 289 288 288 288 287
297 295 303 310 309 309 310 308 308 309 308 306 304 303 301 300 300 299 298 298 297 296 295 295 294 292 291 291 290 290 290 290 290 290 289 289 289 289 288 288 288 287 287
297 297 296 305 311 307 307 308 308 308 307 306 304 303 302 300 300 299 298 297 296 295 295 295 294 293 291 290 289 290 290 290 290 289 289 289 289 288 288 288 287 287 287
294 298 297 298 305 309 307 307 308 307 307 306 304 303 302 301 300 299 298 297 296 295 295 294 294 293 291 290 289 290 290 290 289 288 289 289 288 288 288 287 288 287 286
293 294 300 296 296 306 308 306 306 307 306 306 305 303 302 301 300 299 298 297 296 295 295 294 293 292 291 291 290 290 290 289 289 289 289 289 288 288 288 288 288 287 286
291 293 301 299 297 298 309 306 305 306 307 306 304 304 302 301 300 299 298 297 296 295 295 294 293 292 292 290 289 289 289 289 289 288 289 289 288 288 288 288 288 287 286
Wind_Speed
40 42 46 45 43 40 35 32 30 29 28 33 29 25 22 19 17 16 15 15 15 14 13 12 11 11 9 8 9 8 2 4 14 21 23 18 12 8 5 6 9 11 11
41 41 41 43 42 40 36 33 30 28 25 25 26 24 22 20 17 14 14 14 13 12 12 11 10 9 7 6 6 4 4 16 25 24 21 11 7 4 4 6 9 10 9
45 42 41 40 38 35 33 30 29 29 27 26 26 24 21 19 18 16 15 14 13 13 12 11 10 7 6 6 6 5 6 13 22 21 8 7 6 5 1 6 10 9 12
44 41 38 37 34 31 30 29 29 31 30 30 28 25 23 22 20 15 15 14 14 13 11 10 8 7 6 6 6 7 7 8 13 14 9 8 7 4 4 4 10 13 13
45 42 40 39 36 34 33 30 28 30 32 30 25 23 22 21 20 17 16 16 14 12 11 9 8 7 6 7 6 7 8 9 8 8 10 8 8 8 6 5 12 14 16
43 43 43 42 40 38 34 31 30 33 31 29 27 26 25 24 22 20 19 17 15 13 12 10 8 8 7 8 8 8 9 10 10 10 11 10 9 12 11 11 12 13 15
49 50 50 46 43 41 37 33 34 35 34 32 31 28 26 26 22 20 19 19 17 15 13 11 10 10 10 10 10 9 10 11 10 11 12 13 14 13 13 14 15 15 19
50 51 54 50 45 41 38 35 36 36 36 34 32 31 28 26 22 19 20 17 15 15 14 13 12 12 11 11 11 11 12 12 12 13 13 13 14 13 15 16 18 15 19
47 53 57 55 48 46 43 40 39 39 37 37 35 32 29 28 24 23 20 18 17 17 17 15 15 13 13 12 12 12 14 13 14 15 14 14 15 15 16 16 18 21 19
53 58 60 59 54 50 45 41 40 40 38 36 34 32 31 28 26 25 21 20 18 19 19 18 16 15 14 14 13 14 15 13 15 15 13 14 15 14 14 15 17 18 19
41 51 59 57 56 50 45 42 40 39 36 35 34 33 33 30 27 24 22 19 19 21 20 18 18 16 16 15 14 14 14 14 14 14 12 14 13 13 13 14 16 17 19
46 45 49 51 54 51 48 44 41 40 37 37 36 35 32 30 28 26 23 21 22 21 20 19 18 17 16 16 15 14 14 13 12 12 11 13 12 11 12 13 15 18 21
36 44 45 52 57 55 50 46 43 41 40 40 39 36 34 32 30 27 25 25 23 22 21 20 20 19 18 17 16 15 14 13 12 11 10 11 10 10 12 13 15 18 21
24 41 39 45 48 48 52 49 43 40 40 39 38 38 37 34 31 29 29 27 25 24 23 21 20 20 19 18 17 15 13 12 12 10 9 9 8 10 12 14 17 20 22
35 41 43 43 44 47 47 43 40 40 41 41 41 40 38 33 32 31 29 28 27 24 22 22 21 21 19 17 16 14 13 11 11 10 9 7 9 10 12 14 18 21 24
32 28 33 41 48 48 49 44 42 41 42 42 41 40 36 34 34 32 32 30 28 25 23 22 22 22 20 17 15 13 11 10 10 11 8 8 7 9 12 15 18 21 25
12 26 41 41 43 45 46 50 47 46 44 43 43 40 37 37 35 33 33 33 30 27 25 24 22 21 20 19 16 14 11 10 9 9 8 6 6 8 10 12 14 18 22
34 23 33 39 46 51 50 53 48 48 47 46 44 41 40 39 37 36 35 34 31 28 27 25 23 21 21 19 17 15 13 12 11 8 7 5 5 6 8 10 11 16 19
40 37 29 47 45 53 47 53 52 52 48 47 46 43 43 41 39 38 38 36 33 30 27 25 24 22 21 20 19 17 15 13 12 9 6 4 4 5 7 9 12 15 18
47 44 25 38 42 46 50 54 54 52 49 48 47 46 46 42 40 40 39 38 33 30 28 26 23 21 21 20 19 17 15 13 11 9 6 4 3 5 7 9 14 17 20
49 47 12 40 47 50 51 53 55 52 49 45 46 47 45 42 41 41 40 38 35 32 30 27 26 23 21 20 19 17 14 12 11 9 6 4 3 4 7 10 14 18 19
43 44 28 2 27 47 50 53 54 50 47 45 46 45 43 43 42 41 41 38 37 35 33 31 28 26 23 21 20 18 16 14 11 9 6 4 2 3 6 10 13 15 16
38 38 37 22 7 29 42 48 50 49 48 46 47 44 43 43 41 43 42 42 40 38 36 34 32 29 26 24 22 20 18 16 12 10 7 4 2 2 5 8 11 14 17
40 34 34 30 22 14 37 41 46 49 48 45 45 42 44 44 42 43 42 45 45 42 40 37 35 31 29 27 25 23 21 18 15 11 8 5 3 1 4 7 10 14 17
36 39 29 33 30 16 29 37 46 50 49 45 45 44 45 45 44 43 44 47 45 42 42 39 36 35 33 29 25 23 21 18 15 12 9 7 4 1 2 6 9 12 15
37 38 29 31 29 27 16 40 47 52 50 47 47 46 47 47 44 44 45 45 41 40 37 33 32 31 26 26 25 24 22 19 16 13 10 8 6 3 1 5 9 11 14
Wind_Direction
180 187 189 188 187 185 190 195 197 200 204 205 205 207 212 217 221 222 227 232 238 240 240 242 241 249 257 257 260 264 232 135 144 143 136 132 137 139 97 32 9 4 0
171 170 174 179 184 188 193 196 204 211 212 210 210 211 214 214 218 220 230 231 232 236 234 236 243 250 258 241 236 230 158 144 152 148 146 134 134 130 69 17 4 8 17
173 174 177 182 187 193 197 203 211 214 214 209 210 206 206 209 213 221 227 216 215 221 226 234 246 244 231 218 212 197 157 146 173 171 174 168 184 187 190 41 21 40 42
177 177 181 187 195 201 209 213 219 218 213 210 209 215 218 211 205 209 217 213 209 213 220 226 229 221 209 195 185 159 148 139 141 150 135 144 134 150 164 85 53 54 55
188 190 196 203 205 211 212 217 222 216 206 208 206 210 208 201 200 206 214 207 207 208 210 212 210 198 187 171 156 146 145 141 132 128 123 115 96 96 81 80 69 57 52
196 206 213 207 209 212 214 220 220 203 199 197 201 206 201 208 204 204 207 203 204 203 202 198 191 180 175 155 156 154 143 126 121 114 114 113 99 79 68 59 60 64 52
207 206 207 203 204 209 214 215 209 202 197 197 200 205 209 209 206 207 205 202 198 194 190 189 182 175 167 158 151 143 127 116 111 103 95 88 78 69 59 51 45 43 37
203 199 209 208 207 210 213 210 207 202 198 198 202 201 204 202 204 212 204 202 197 189 184 185 179 173 162 153 144 139 126 120 108 102 96 86 77 65 54 47 43 37 30
201 204 211 212 209 211 211 211 207 203 201 196 198 203 201 201 208 207 203 200 193 187 183 183 177 172 161 151 144 136 127 123 115 104 98 85 74 63 55 45 40 36 23
206 208 208 213 212 213 212 208 205 202 197 200 203 201 200 206 209 208 202 195 192 188 182 181 175 171 158 152 150 139 130 128 115 105 98 86 75 66 58 48 39 32 25
206 203 207 209 209 208 208 204 197 195 196 200 202 204 203 205 207 205 200 199 193 186 181 182 176 170 161 154 151 141 134 128 118 109 97 88 78 67 55 45 35 25 18
217 206 207 203 206 204 204 203 198 198 200 202 202 206 206 206 204 203 203 202 193 186 182 180 177 171 165 158 154 145 137 130 124 109 99 88 76 62 50 40 31 22 15
229 200 197 202 205 205 200 200 200 199 199 199 201 203 206 203 203 204 205 196 192 187 183 181 179 175 170 162 155 150 144 136 128 115 102 88 75 57 43 35 26 20 13
211 192 192 195 197 199 199 196 199 202 199 199 199 200 203 204 206 204 198 197 194 190 186 182 180 177 174 168 162 156 152 142 132 118 103 87 70 53 37 28 21 15 9
181 183 189 192 192 194 197 200 202 202 203 200 200 201 202 205 204 199 197 196 194 193 188 182 180 177 175 171 170 164 159 149 135 123 109 86 59 40 30 23 17 12 8
178 180 185 189 194 198 196 202 204 206 205 204 202 203 203 202 200 197 193 194 195 193 188 184 184 181 177 175 173 172 163 155 142 128 117 86 60 39 27 21 15 11 11
338 192 193 200 211 211 206 205 206 204 205 206 205 202 202 200 198 194 194 195 195 193 188 185 184 182 181 179 178 174 170 160 152 137 120 101 73 49 34 27 20 19 17
336 282 240 218 218 213 209 209 208 207 206 206 206 203 202 200 196 194 195 196 196 195 188 186 184 184 182 182 182 178 176 167 157 146 127 109 77 54 39 30 26 27 21
336 324 268 241 227 216 215 209 206 205 205 207 205 205 205 200 197 195 195 196 196 194 190 190 186 186 187 185 185 186 182 170 163 150 135 108 72 50 37 25 33 31 25
354 344 268 219 211 204 205 208 206 203 206 207 206 207 205 201 199 199 195 196 198 196 190 189 188 188 193 188 188 193 188 178 169 157 145 117 74 43 29 23 28 23 18
354 2 325 211 217 206 206 209 206 206 209 208 206 206 207 204 202 198 198 198 197 197 193 193 190 190 193 196 194 193 192 186 174 166 154 125 76 38 23 24 23 21 16
353 360 8 291 207 206 208 204 208 206 206 205 206 205 204 203 203 200 198 200 201 199 197 194 193 191 193 195 196 197 192 186 183 174 162 142 101 43 27 23 22 17 10
336 351 2 7 253 209 205 208 208 205 204 203 206 205 204 204 206 204 201 199 201 201 200 197 198 193 192 192 194 194 189 187 185 181 171 163 141 56 25 18 13 10 8
334 330 353 2 354 249 216 212 210 208 206 204 206 205 204 203 205 206 206 203 200 200 203 201 200 197 195 193 192 190 188 188 186 187 180 176 164 86 16 11 8 8 8
330 330 327 343 343 324 225 211 210 211 206 205 205 205 206 207 204 207 207 207 208 207 205 206 203 200 199 196 196 193 190 189 190 192 189 191 183 188 355 5 9 9 7
319 320 311 319 337 339 247 218 212 211 208 205 206 207 207 207 207 205 204 209 214 211 213 216 211 206 209 197 193 191 192 193 194 194 198 197 199 213 317 4 8 6 8